QPF
0.02 0.02 0.03 0.03 0.03 0.03 0.05 0.07 0.09 0.07 0.05 0.04 0.04 0.05 0.06 0.06 0.06 0.06 0.06 0.07 0.07 0.06 0.05 0.03 0.02 0.02 0.02 0.02 0.02 0.02 0.02 0.01 0.01 0.03 0.04 0.04 0.03 0.03 0.02 0.02 0.02 0.02 0.01
0.02 0.03 0.04 0.05 0.04 0.04 0.05 0.07 0.08 0.07 0.05 0.04 0.03 0.03 0.03 0.04 0.05 0.05 0.06 0.07 0.07 0.06 0.06 0.04 0.02 0.01 0.01 0.01 0.01 0.02 0.02 0.02 0.02 0.03 0.04 0.04 0.04 0.03 0.03 0.03 0.03 0.02 0.02
0.02 0.03 0.04 0.05 0.05 0.05 0.05 0.06 0.07 0.07 0.05 0.04 0.04 0.04 0.04 0.05 0.06 0.06 0.06 0.07 0.08 0.08 0.08 0.07 0.06 0.04 0.01 0.01 0.01 0.01 0.01 0.01 0.01 0.02 0.04 0.03 0.03 0.03 0.03 0.03 0.03 0.03 0.02
0.02 0.03 0.04 0.04 0.04 0.05 0.06 0.06 0.06 0.07 0.06 0.06 0.05 0.05 0.05 0.05 0.04 0.05 0.05 0.07 0.09 0.10 0.10 0.09 0.07 0.06 0.05 0.02 0.01 0.01 0.01 0.01 0.01 0.01 0.01 0.02 0.02 0.02 0.02 0.03 0.03 0.03 0.02
0.03 0.03 0.04 0.04 0.03 0.04 0.05 0.06 0.06 0.06 0.06 0.06 0.06 0.05 0.05 0.04 0.04 0.04 0.04 0.06 0.08 0.10 0.09 0.08 0.07 0.07 0.07 0.06 0.04 0.02 0.01 0.01 0.01 0.01 0.01 0.01 0.02 0.02 0.02 0.02 0.02 0.03 0.02
0.02 0.03 0.04 0.04 0.03 0.03 0.04 0.06 0.07 0.05 0.06 0.06 0.06 0.06 0.04 0.03 0.03 0.03 0.04 0.06 0.07 0.07 0.07 0.05 0.05 0.06 0.07 0.07 0.06 0.04 0.03 0.02 0.02 0.02 0.02 0.02 0.01 0.01 0.01 0.01 0.01 0.02 0.02
0.01 0.02 0.03 0.03 0.04 0.03 0.03 0.04 0.08 0.06 0.06 0.08 0.08 0.07 0.06 0.04 0.04 0.03 0.04 0.04 0.05 0.04 0.05 0.04 0.04 0.05 0.05 0.05 0.05 0.04 0.04 0.03 0.02 0.02 0.03 0.03 0.02 0.01 0.01 0.01 0.01 0.02 0.02
0.01 0.01 0.02 0.03 0.03 0.03 0.03 0.04 0.07 0.06 0.06 0.07 0.09 0.09 0.08 0.07 0.06 0.05 0.05 0.05 0.04 0.03 0.02 0.02 0.02 0.03 0.03 0.04 0.05 0.04 0.04 0.03 0.02 0.02 0.02 0.02 0.02 0.02 0.02 0.02 0.02 0.02 0.02
0.01 0.01 0.02 0.02 0.03 0.03 0.03 0.02 0.05 0.06 0.05 0.06 0.08 0.09 0.09 0.09 0.10 0.09 0.08 0.06 0.04 0.03 0.02 0.01 0.01 0.02 0.03 0.03 0.04 0.05 0.04 0.03 0.02 0.02 0.01 0.01 0.02 0.02 0.02 0.01 0.01 0.02 0.03
0.01 0.01 0.01 0.01 0.02 0.03 0.03 0.02 0.03 0.06 0.07 0.07 0.08 0.08 0.08 0.09 0.10 0.11 0.10 0.08 0.06 0.04 0.02 0.01 0.01 0.01 0.01 0.02 0.03 0.04 0.05 0.05 0.04 0.03 0.02 0.01 0.01 0.01 0.02 0.02 0.01 0.01 0.02
0.01 0.01 0.01 0.01 0.02 0.02 0.03 0.03 0.03 0.04 0.07 0.07 0.07 0.06 0.06 0.08 0.10 0.10 0.08 0.08 0.07 0.06 0.03 0.02 0.01 0.01 0.01 0.01 0.01 0.02 0.04 0.05 0.05 0.04 0.04 0.03 0.02 0.02 0.02 0.02 0.02 0.02 0.02
0.02 0.02 0.02 0.01 0.01 0.02 0.03 0.03 0.03 0.03 0.04 0.06 0.07 0.07 0.06 0.07 0.09 0.09 0.07 0.06 0.06 0.06 0.04 0.03 0.02 0.02 0.01 0.01 0.01 0.01 0.01 0.02 0.03 0.04 0.04 0.04 0.04 0.03 0.02 0.03 0.03 0.02 0.03
0.02 0.02 0.02 0.02 0.02 0.02 0.02 0.02 0.03 0.02 0.02 0.04 0.06 0.08 0.08 0.08 0.08 0.08 0.07 0.06 0.05 0.05 0.06 0.05 0.04 0.02 0.01 0.01 0.01 0.01 0.01 0.01 0.01 0.02 0.02 0.02 0.03 0.03 0.03 0.03 0.03 0.03 0.03
0.02 0.02 0.02 0.02 0.02 0.01 0.02 0.02 0.02 0.02 0.02 0.02 0.04 0.06 0.07 0.09 0.08 0.06 0.06 0.06 0.05 0.04 0.04 0.04 0.05 0.04 0.03 0.02 0.02 0.01 0.01 0.01 0.01 0.01 0.01 0.01 0.02 0.02 0.03 0.03 0.03 0.03 0.04
0.02 0.02 0.03 0.02 0.02 0.01 0.02 0.01 0.01 0.01 0.01 0.01 0.02 0.04 0.06 0.07 0.08 0.07 0.05 0.04 0.05 0.04 0.03 0.04 0.05 0.06 0.05 0.04 0.03 0.03 0.02 0.02 0.01 0.02 0.02 0.02 0.02 0.02 0.02 0.03 0.03 0.03 0.04
0.02 0.02 0.02 0.02 0.02 0.01 0.01 0.01 0.01 0.01 0.01 0.01 0.02 0.03 0.05 0.05 0.04 0.04 0.04 0.04 0.04 0.04 0.04 0.05 0.06 0.06 0.06 0.07 0.06 0.04 0.02 0.02 0.02 0.02 0.02 0.02 0.03 0.03 0.03 0.03 0.04 0.05 0.04
0.01 0.01 0.01 0.01 0.01 0.01 0.01 0.01 0.01 0.01 0.01 0.01 0.02 0.03 0.04 0.04 0.03 0.03 0.02 0.03 0.03 0.03 0.04 0.04 0.04 0.04 0.05 0.06 0.07 0.07 0.04 0.03 0.04 0.04 0.04 0.04 0.03 0.04 0.04 0.03 0.04 0.05 0.05
0.01 0.00 0.01 0.01 0.01 0.01 0.01 0.01 0.00 0.01 0.01 0.02 0.02 0.02 0.03 0.04 0.03 0.03 0.02 0.02 0.02 0.02 0.02 0.02 0.02 0.02 0.03 0.04 0.05 0.07 0.06 0.05 0.05 0.05 0.04 0.04 0.03 0.03 0.03 0.03 0.03 0.03 0.04
0.00 0.00 0.01 0.01 0.01 0.00 0.00 0.00 0.00 0.01 0.01 0.02 0.02 0.02 0.02 0.04 0.04 0.04 0.02 0.01 0.01 0.01 0.01 0.01 0.01 0.01 0.02 0.03 0.03 0.04 0.05 0.05 0.05 0.04 0.04 0.04 0.03 0.03 0.03 0.02 0.02 0.02 0.02
0.00 0.00 0.01 0.01 0.01 0.00 0.00 0.01 0.01 0.01 0.01 0.02 0.01 0.02 0.02 0.03 0.03 0.04 0.03 0.02 0.01 0.01 0.01 0.01 0.01 0.01 0.01 0.02 0.02 0.02 0.02 0.02 0.02 0.02 0.02 0.02 0.03 0.04 0.04 0.02 0.02 0.02 0.01
0.00 0.01 0.01 0.01 0.01 0.00 0.00 0.01 0.01 0.01 0.01 0.01 0.02 0.02 0.03 0.03 0.03 0.04 0.04 0.02 0.01 0.01 0.01 0.01 0.01 0.01 0.01 0.01 0.01 0.02 0.01 0.01 0.01 0.01 0.01 0.01 0.02 0.03 0.03 0.02 0.02 0.01 0.02
0.00 0.01 0.02 0.01 0.01 0.01 0.01 0.01 0.01 0.01 0.01 0.01 0.02 0.02 0.03 0.03 0.04 0.04 0.04 0.03 0.02 0.01 0.01 0.01 0.01 0.01 0.01 0.01 0.01 0.01 0.01 0.01 0.01 0.01 0.01 0.01 0.02 0.02 0.02 0.02 0.02 0.02 0.02
0.00 0.01 0.02 0.01 0.01 0.01 0.01 0.01 0.01 0.02 0.02 0.02 0.02 0.03 0.03 0.03 0.04 0.04 0.03 0.03 0.02 0.02 0.01 0.01 0.01 0.01 0.01 0.01 0.01 0.01 0.01 0.01 0.02 0.02 0.01 0.01 0.01 0.02 0.02 0.02 0.02 0.02 0.02
0.00 0.01 0.02 0.01 0.02 0.01 0.01 0.01 0.01 0.02 0.02 0.02 0.02 0.02 0.03 0.03 0.03 0.04 0.03 0.03 0.02 0.02 0.02 0.02 0.01 0.01 0.01 0.01 0.01 0.01 0.01 0.01 0.02 0.02 0.02 0.01 0.01 0.01 0.02 0.03 0.03 0.03 0.02
0.00 0.01 0.02 0.02 0.02 0.02 0.01 0.01 0.01 0.01 0.02 0.02 0.02 0.02 0.02 0.02 0.02 0.03 0.02 0.03 0.03 0.02 0.02 0.02 0.02 0.02 0.01 0.01 0.01 0.02 0.01 0.01 0.02 0.01 0.01 0.01 0.02 0.02 0.01 0.02 0.02 0.02 0.03
0.00 0.01 0.02 0.02 0.02 0.02 0.01 0.01 0.01 0.01 0.01 0.02 0.02 0.02 0.02 0.01 0.02 0.03 0.02 0.02 0.03 0.03 0.03 0.02 0.02 0.01 0.01 0.01 0.01 0.01 0.01 0.01 0.01 0.01 0.01 0.01 0.02 0.02 0.02 0.01 0.02 0.02 0.02
MSLP
1006.15 1006.32 1006.73 1007.39 1008.26 1009.28 1010.39 1011.52 1012.59 1013.58 1014.46 1015.24 1015.94 1016.58 1017.17 1017.74 1018.27 1018.75 1019.18 1019.54 1019.83 1020.03 1020.17 1020.26 1020.32 1020.36 1020.39 1020.42 1020.45 1020.48 1020.50 1020.51 1020.52 1020.52 1020.53 1020.56 1020.59 1020.63 1020.69 1020.74 1020.78 1020.79 1020.80
1005.14 1005.31 1005.77 1006.50 1007.48 1008.62 1009.85 1011.10 1012.27 1013.34 1014.27 1015.08 1015.79 1016.42 1017.01 1017.57 1018.11 1018.62 1019.08 1019.49 1019.82 1020.08 1020.26 1020.37 1020.43 1020.47 1020.48 1020.49 1020.49 1020.49 1020.49 1020.48 1020.48 1020.48 1020.50 1020.53 1020.58 1020.66 1020.75 1020.84 1020.93 1021.00 1021.05
1004.38 1004.51 1004.95 1005.69 1006.71 1007.91 1009.23 1010.55 1011.81 1012.94 1013.93 1014.78 1015.51 1016.16 1016.76 1017.33 1017.89 1018.44 1018.95 1019.41 1019.80 1020.12 1020.35 1020.50 1020.59 1020.63 1020.64 1020.63 1020.61 1020.59 1020.55 1020.53 1020.50 1020.49 1020.49 1020.53 1020.59 1020.68 1020.80 1020.94 1021.08 1021.21 1021.32
1004.03 1004.05 1004.39 1005.07 1006.04 1007.24 1008.57 1009.93 1011.23 1012.42 1013.46 1014.35 1015.12 1015.81 1016.44 1017.05 1017.65 1018.24 1018.81 1019.33 1019.79 1020.16 1020.45 1020.66 1020.78 1020.85 1020.87 1020.86 1020.83 1020.78 1020.73 1020.67 1020.62 1020.59 1020.58 1020.60 1020.66 1020.76 1020.90 1021.07 1021.25 1021.43 1021.60
1004.19 1004.03 1004.21 1004.75 1005.60 1006.71 1007.98 1009.31 1010.61 1011.82 1012.89 1013.83 1014.66 1015.39 1016.08 1016.74 1017.40 1018.04 1018.67 1019.25 1019.77 1020.21 1020.55 1020.81 1020.98 1021.08 1021.13 1021.14 1021.11 1021.07 1021.01 1020.94 1020.87 1020.82 1020.79 1020.79 1020.84 1020.93 1021.07 1021.25 1021.45 1021.66 1021.87
1004.91 1004.54 1004.50 1004.82 1005.48 1006.43 1007.57 1008.81 1010.05 1011.24 1012.32 1013.29 1014.16 1014.96 1015.71 1016.43 1017.15 1017.85 1018.53 1019.16 1019.73 1020.22 1020.62 1020.93 1021.15 1021.30 1021.39 1021.43 1021.44 1021.42 1021.37 1021.31 1021.24 1021.18 1021.13 1021.11 1021.14 1021.22 1021.34 1021.51 1021.70 1021.91 1022.13
1006.15 1005.55 1005.27 1005.34 1005.77 1006.50 1007.45 1008.54 1009.67 1010.79 1011.85 1012.82 1013.72 1014.56 1015.36 1016.14 1016.91 1017.66 1018.38 1019.05 1019.65 1020.18 1020.62 1020.97 1021.24 1021.45 1021.60 1021.70 1021.76 1021.79 1021.78 1021.75 1021.70 1021.64 1021.59 1021.56 1021.56 1021.61 1021.70 1021.83 1022.00 1022.18 1022.38
1007.81 1007.00 1006.49 1006.32 1006.50 1006.99 1007.71 1008.60 1009.59 1010.59 1011.57 1012.51 1013.40 1014.26 1015.09 1015.91 1016.70 1017.48 1018.22 1018.90 1019.52 1020.06 1020.53 1020.91 1021.23 1021.50 1021.72 1021.89 1022.03 1022.13 1022.18 1022.21 1022.20 1022.16 1022.12 1022.09 1022.07 1022.08 1022.13 1022.22 1022.33 1022.47 1022.62
1009.72 1008.77 1008.08 1007.71 1007.66 1007.91 1008.40 1009.07 1009.86 1010.71 1011.57 1012.43 1013.28 1014.11 1014.94 1015.76 1016.55 1017.33 1018.05 1018.73 1019.34 1019.87 1020.35 1020.76 1021.12 1021.44 1021.73 1021.98 1022.21 1022.39 1022.53 1022.63 1022.67 1022.68 1022.67 1022.64 1022.61 1022.60 1022.61 1022.64 1022.70 1022.78 1022.87
1011.72 1010.71 1009.92 1009.42 1009.19 1009.23 1009.50 1009.95 1010.53 1011.19 1011.90 1012.64 1013.40 1014.17 1014.95 1015.73 1016.49 1017.23 1017.92 1018.56 1019.13 1019.64 1020.11 1020.52 1020.91 1021.28 1021.63 1021.97 1022.28 1022.56 1022.79 1022.96 1023.07 1023.14 1023.15 1023.14 1023.12 1023.09 1023.07 1023.07 1023.08 1023.10 1023.13
1013.65 1012.67 1011.88 1011.31 1010.98 1010.87 1010.96 1011.20 1011.57 1012.03 1012.57 1013.15 1013.79 1014.46 1015.15 1015.86 1016.56 1017.23 1017.86 1018.43 1018.95 1019.42 1019.85 1020.26 1020.66 1021.06 1021.47 1021.87 1022.26 1022.61 1022.92 1023.16 1023.34 1023.46 1023.52 1023.53 1023.52 1023.50 1023.47 1023.45 1023.43 1023.42 1023.40
1015.41 1014.55 1013.83 1013.28 1012.91 1012.71 1012.65 1012.72 1012.90 1013.16 1013.51 1013.93 1014.42 1014.97 1015.55 1016.16 1016.77 1017.36 1017.91 1018.40 1018.85 1019.27 1019.65 1020.03 1020.43 1020.84 1021.27 1021.71 1022.15 1022.56 1022.92 1023.22 1023.45 1023.61 1023.71 1023.76 1023.78 1023.78 1023.77 1023.76 1023.74 1023.71 1023.68
1016.96 1016.26 1015.67 1015.19 1014.84 1014.59 1014.44 1014.38 1014.39 1014.48 1014.66 1014.91 1015.25 1015.66 1016.13 1016.63 1017.14 1017.63 1018.09 1018.51 1018.88 1019.22 1019.55 1019.89 1020.25 1020.64 1021.07 1021.52 1021.98 1022.41 1022.80 1023.13 1023.39 1023.58 1023.71 1023.80 1023.86 1023.89 1023.92 1023.94 1023.95 1023.95 1023.94
1018.31 1017.79 1017.35 1016.98 1016.67 1016.42 1016.20 1016.03 1015.92 1015.86 1015.89 1016.00 1016.20 1016.48 1016.84 1017.23 1017.65 1018.05 1018.42 1018.74 1019.03 1019.30 1019.56 1019.84 1020.15 1020.50 1020.90 1021.32 1021.76 1022.18 1022.56 1022.89 1023.16 1023.37 1023.52 1023.64 1023.74 1023.82 1023.90 1023.98 1024.05 1024.10 1024.12
1019.48 1019.13 1018.84 1018.57 1018.32 1018.07 1017.82 1017.58 1017.36 1017.19 1017.09 1017.09 1017.17 1017.35 1017.61 1017.92 1018.24 1018.56 1018.84 1019.09 1019.30 1019.49 1019.67 1019.88 1020.12 1020.41 1020.75 1021.12 1021.51 1021.89 1022.24 1022.54 1022.79 1023.00 1023.16 1023.31 1023.44 1023.57 1023.71 1023.85 1023.99 1024.10 1024.19
1020.52 1020.31 1020.12 1019.94 1019.72 1019.48 1019.20 1018.91 1018.62 1018.37 1018.18 1018.09 1018.09 1018.19 1018.37 1018.60 1018.85 1019.10 1019.31 1019.48 1019.62 1019.73 1019.84 1019.96 1020.13 1020.35 1020.61 1020.91 1021.23 1021.55 1021.84 1022.10 1022.32 1022.51 1022.68 1022.83 1022.99 1023.16 1023.35 1023.56 1023.76 1023.94 1024.09
1021.45 1021.33 1021.20 1021.06 1020.86 1020.61 1020.30 1019.96 1019.62 1019.32 1019.07 1018.92 1018.87 1018.91 1019.03 1019.21 1019.40 1019.58 1019.73 1019.84 1019.91 1019.95 1019.98 1020.03 1020.12 1020.26 1020.44 1020.67 1020.91 1021.16 1021.40 1021.61 1021.80 1021.96 1022.11 1022.27 1022.44 1022.64 1022.87 1023.11 1023.37 1023.60 1023.81
1022.25 1022.16 1022.06 1021.91 1021.71 1021.43 1021.10 1020.72 1020.35 1020.00 1019.72 1019.53 1019.44 1019.44 1019.52 1019.65 1019.80 1019.93 1020.02 1020.07 1020.08 1020.06 1020.03 1020.02 1020.04 1020.11 1020.23 1020.38 1020.56 1020.76 1020.94 1021.11 1021.26 1021.39 1021.52 1021.67 1021.84 1022.04 1022.28 1022.55 1022.83 1023.10 1023.34
1022.88 1022.80 1022.68 1022.51 1022.27 1021.97 1021.60 1021.20 1020.80 1020.43 1020.12 1019.91 1019.79 1019.76 1019.80 1019.89 1019.99 1020.07 1020.12 1020.12 1020.08 1020.01 1019.93 1019.87 1019.84 1019.86 1019.93 1020.04 1020.18 1020.33 1020.48 1020.62 1020.74 1020.85 1020.96 1021.08 1021.24 1021.43 1021.65 1021.91 1022.19 1022.46 1022.71
1023.29 1023.19 1023.04 1022.84 1022.57 1022.24 1021.85 1021.42 1021.00 1020.62 1020.30 1020.06 1019.91 1019.85 1019.86 1019.90 1019.96 1019.99 1020.00 1019.96 1019.88 1019.77 1019.66 1019.57 1019.52 1019.51 1019.55 1019.64 1019.76 1019.89 1020.02 1020.14 1020.24 1020.34 1020.43 1020.53 1020.66 1020.81 1021.01 1021.24 1021.48 1021.74 1021.98
1023.43 1023.31 1023.15 1022.92 1022.63 1022.27 1021.87 1021.43 1021.00 1020.61 1020.27 1020.01 1019.83 1019.74 1019.70 1019.70 1019.71 1019.71 1019.67 1019.59 1019.49 1019.36 1019.24 1019.14 1019.07 1019.06 1019.10 1019.19 1019.30 1019.43 1019.56 1019.68 1019.78 1019.86 1019.93 1020.01 1020.10 1020.22 1020.37 1020.56 1020.76 1020.98 1021.20
1023.29 1023.17 1023.00 1022.76 1022.47 1022.11 1021.71 1021.27 1020.84 1020.43 1020.09 1019.80 1019.60 1019.46 1019.38 1019.34 1019.30 1019.25 1019.18 1019.08 1018.96 1018.82 1018.70 1018.59 1018.54 1018.53 1018.58 1018.67 1018.80 1018.94 1019.07 1019.20 1019.30 1019.38 1019.44 1019.50 1019.56 1019.64 1019.75 1019.88 1020.04 1020.22 1020.42
1022.88 1022.78 1022.62 1022.40 1022.12 1021.78 1021.39 1020.97 1020.54 1020.14 1019.78 1019.48 1019.24 1019.07 1018.95 1018.86 1018.78 1018.70 1018.60 1018.47 1018.34 1018.20 1018.08 1017.99 1017.94 1017.94 1018.00 1018.10 1018.24 1018.39 1018.54 1018.67 1018.77 1018.85 1018.91 1018.95 1018.99 1019.03 1019.11 1019.20 1019.33 1019.48 1019.66
1022.27 1022.19 1022.06 1021.87 1021.61 1021.30 1020.94 1020.54 1020.13 1019.73 1019.37 1019.06 1018.80 1018.60 1018.44 1018.32 1018.21 1018.09 1017.97 1017.84 1017.70 1017.56 1017.43 1017.35 1017.30 1017.31 1017.37 1017.48 1017.62 1017.77 1017.92 1018.05 1018.16 1018.24 1018.29 1018.32 1018.35 1018.38 1018.43 1018.51 1018.61 1018.75 1018.92
1021.52 1021.46 1021.36 1021.20 1020.98 1020.70 1020.36 1019.99 1019.60 1019.23 1018.87 1018.56 1018.30 1018.08 1017.91 1017.76 1017.63 1017.50 1017.36 1017.22 1017.07 1016.92 1016.79 1016.70 1016.65 1016.65 1016.70 1016.79 1016.92 1017.06 1017.20 1017.33 1017.43 1017.51 1017.56 1017.59 1017.62 1017.65 1017.70 1017.77 1017.88 1018.02 1018.19
1020.71 1020.67 1020.58 1020.43 1020.23 1019.97 1019.67 1019.32 1018.97 1018.61 1018.28 1017.99 1017.73 1017.52 1017.35 1017.19 1017.06 1016.92 1016.77 1016.62 1016.46 1016.31 1016.17 1016.06 1015.99 1015.96 1015.98 1016.05 1016.15 1016.26 1016.38 1016.50 1016.59 1016.67 1016.73 1016.76 1016.80 1016.84 1016.90 1016.98 1017.10 1017.25 1017.44
Thickness
5576 5577 5579 5581 5584 5587 5589 5591 5593 5594 5595 5597 5600 5601 5601 5602 5602 5602 5602 5603 5603 5602 5601 5600 5599 5599 5599 5597 5597 5596 5595 5594 5594 5595 5596 5596 5596 5596 5596 5596 5597 5597 5596
5568 5569 5570 5572 5575 5578 5580 5582 5584 5585 5586 5589 5591 5592 5593 5593 5594 5593 5593 5594 5595 5595 5594 5593 5593 5591 5591 5590 5589 5589 5588 5587 5586 5589 5591 5592 5591 5590 5589 5589 5589 5589 5589
5559 5560 5561 5563 5565 5568 5571 5573 5575 5576 5578 5579 5580 5581 5582 5583 5584 5585 5585 5586 5586 5586 5586 5586 5585 5584 5583 5583 5582 5581 5582 5581 5579 5581 5584 5587 5590 5587 5584 5582 5582 5581 5581
5550 5551 5552 5554 5555 5557 5560 5562 5565 5567 5569 5570 5572 5573 5575 5577 5577 5577 5576 5577 5577 5577 5577 5577 5577 5576 5575 5574 5574 5573 5574 5574 5574 5573 5573 5576 5579 5579 5579 5577 5575 5574 5573
5542 5542 5543 5544 5545 5547 5549 5552 5555 5557 5559 5561 5562 5564 5566 5567 5567 5566 5566 5567 5567 5568 5568 5568 5568 5567 5567 5566 5565 5565 5565 5566 5567 5567 5566 5566 5567 5570 5572 5572 5569 5567 5566
5533 5533 5533 5534 5536 5537 5539 5541 5545 5547 5550 5552 5553 5555 5556 5557 5557 5557 5557 5557 5558 5558 5559 5559 5559 5559 5558 5558 5557 5556 5556 5556 5557 5558 5558 5559 5560 5562 5563 5564 5563 5561 5559
5524 5525 5525 5525 5527 5528 5530 5533 5536 5538 5540 5542 5543 5545 5546 5547 5548 5548 5548 5548 5549 5549 5549 5549 5549 5549 5549 5549 5548 5548 5547 5547 5548 5548 5549 5550 5551 5552 5553 5554 5553 5552 5551
5514 5515 5515 5516 5517 5519 5521 5524 5527 5529 5530 5532 5534 5535 5535 5537 5537 5538 5538 5539 5539 5540 5539 5539 5539 5540 5540 5539 5539 5539 5539 5538 5539 5539 5539 5540 5540 5541 5542 5542 5542 5542 5543
5502 5503 5504 5506 5508 5510 5512 5515 5517 5519 5521 5523 5524 5525 5526 5526 5526 5527 5528 5528 5528 5529 5529 5529 5530 5530 5530 5530 5530 5530 5530 5530 5530 5530 5529 5529 5529 5529 5530 5531 5532 5532 5535
5493 5493 5494 5495 5498 5500 5503 5505 5507 5509 5511 5513 5514 5515 5516 5516 5516 5516 5516 5517 5517 5518 5519 5519 5520 5520 5520 5520 5521 5520 5520 5520 5521 5521 5520 5520 5520 5520 5520 5520 5520 5521 5522
5483 5483 5484 5485 5487 5490 5492 5495 5497 5498 5499 5501 5503 5504 5505 5505 5506 5506 5506 5507 5507 5508 5508 5509 5510 5510 5510 5511 5512 5511 5511 5512 5512 5511 5511 5510 5510 5510 5510 5510 5510 5510 5511
5472 5473 5474 5476 5478 5480 5482 5484 5486 5488 5489 5490 5492 5493 5494 5495 5496 5496 5497 5497 5498 5498 5498 5499 5500 5500 5501 5502 5502 5502 5502 5503 5503 5502 5501 5501 5500 5501 5501 5500 5500 5500 5500
5464 5464 5465 5467 5468 5470 5472 5473 5475 5477 5478 5480 5481 5483 5485 5486 5486 5487 5487 5487 5488 5488 5489 5489 5490 5491 5492 5492 5492 5493 5493 5493 5494 5493 5492 5492 5491 5492 5491 5490 5490 5489 5488
5455 5456 5456 5458 5459 5461 5462 5464 5466 5467 5468 5470 5472 5473 5475 5476 5476 5477 5477 5478 5478 5479 5479 5480 5481 5482 5483 5483 5483 5484 5484 5484 5484 5483 5483 5482 5482 5483 5482 5481 5480 5479 5478
5446 5447 5448 5449 5450 5452 5454 5455 5456 5457 5458 5460 5461 5463 5463 5465 5466 5467 5467 5468 5469 5469 5470 5471 5472 5473 5473 5474 5474 5475 5475 5475 5475 5474 5474 5473 5473 5472 5471 5471 5470 5469 5468
5438 5438 5439 5440 5441 5443 5444 5445 5446 5447 5448 5449 5451 5452 5453 5454 5456 5457 5458 5458 5459 5460 5461 5462 5463 5464 5465 5465 5465 5465 5465 5465 5465 5465 5465 5464 5463 5462 5461 5460 5460 5459 5459
5430 5430 5430 5431 5432 5434 5434 5435 5436 5436 5438 5440 5441 5442 5444 5445 5446 5447 5448 5449 5450 5451 5452 5453 5454 5455 5456 5456 5456 5456 5456 5456 5456 5456 5455 5454 5453 5452 5451 5450 5449 5449 5448
5420 5421 5422 5423 5424 5424 5425 5426 5426 5427 5428 5430 5431 5433 5434 5435 5436 5438 5439 5440 5441 5442 5443 5444 5445 5446 5447 5447 5447 5446 5446 5446 5446 5446 5445 5445 5444 5442 5442 5442 5442 5441 5440
5411 5412 5413 5414 5415 5416 5416 5417 5418 5418 5420 5421 5423 5424 5424 5426 5427 5429 5430 5431 5432 5433 5434 5435 5436 5437 5438 5437 5437 5436 5437 5437 5436 5436 5435 5435 5435 5434 5432 5433 5433 5433 5431
5402 5402 5404 5405 5407 5408 5408 5409 5410 5411 5413 5414 5414 5414 5416 5417 5418 5420 5421 5422 5423 5424 5425 5426 5427 5428 5429 5429 5428 5427 5428 5428 5428 5427 5426 5425 5425 5424 5423 5423 5424 5424 5423
5393 5394 5395 5397 5398 5399 5400 5401 5403 5404 5405 5405 5405 5406 5407 5409 5410 5411 5412 5413 5415 5416 5417 5418 5418 5419 5419 5419 5418 5418 5418 5419 5418 5418 5417 5417 5416 5415 5415 5415 5415 5415 5414
5385 5386 5387 5388 5389 5390 5391 5394 5395 5396 5395 5397 5398 5399 5399 5400 5401 5403 5404 5405 5406 5407 5408 5409 5410 5410 5410 5410 5409 5409 5408 5408 5408 5408 5408 5408 5407 5407 5406 5406 5407 5405 5404
5377 5378 5379 5379 5380 5381 5383 5385 5386 5386 5387 5388 5389 5390 5391 5392 5393 5394 5396 5397 5398 5399 5400 5401 5402 5402 5401 5401 5400 5400 5399 5398 5398 5398 5398 5398 5397 5397 5398 5398 5398 5397 5397
5367 5369 5370 5371 5372 5372 5373 5375 5376 5377 5378 5380 5381 5382 5383 5384 5385 5386 5387 5388 5390 5392 5393 5393 5393 5393 5393 5393 5392 5391 5390 5389 5388 5388 5388 5388 5388 5388 5389 5390 5390 5389 5389
5359 5360 5361 5363 5363 5363 5364 5366 5367 5368 5370 5371 5372 5374 5375 5376 5377 5378 5379 5381 5383 5384 5385 5386 5386 5385 5385 5385 5383 5382 5381 5380 5379 5378 5378 5379 5379 5379 5380 5381 5382 5382 5381
5351 5352 5353 5354 5354 5354 5355 5357 5358 5360 5362 5363 5365 5367 5368 5369 5370 5370 5372 5372 5373 5374 5375 5375 5376 5377 5376 5375 5373 5372 5371 5369 5369 5369 5370 5370 5370 5371 5372 5373 5373 5374 5374